Location: *
(35.8942°N, 23.3025°E)
Time: 14:37:31
(UTC+00:00)

Tiangong - Pass Details

Date: 28 November 2022
Orbit: 383 x 387 km, 41.5° (Epoch: 27 January)

Event Time Altitude Azimuth Distance (km) Brightness Sun altitude
Rises 17:14:00 0° 244° (WSW) 2,258 3.0 -24.0°
Reaches altitude 10° 17:16:04 10° 244° (WSW) 1,409 1.7 -24.4°
Enters shadow 17:17:46 29° 243° (WSW) 745 -0.1 -24.7°
